EHI
0 0 0 0 0 0 0 0 0 0 0 0 0 0 0 0 0 0 0 0 0 0 0 0 0 0 0 0 0 0 0 0 0 0 0 0 0 0 0 0 0 0 0
0 0 0 0 0 0 0 0 0 0 0 0 0 0 0 0 0 0 0 0 0 0 0 0 0 0 0 0 0 0 0 0 0 0 0 0 0 0 0 0 0 0 0
0 0 0 0 0 0 0 0 0 0 0 0 0 0 0 0 0 0 0 0 0 0 0 0 0 0 0 0 0 0 0 0 0 0 0 0 0 0 0 0 0 0 0
0 0 0 0 0 0 0 0 0 0 0 0 0 0 0 0 0 0 0 0 0 0 0 0 0 0 0 0 0 0 0 0 0 0 0 0 0 0 0 0 0 0 0
0 0 0 0 0 0 0 0 0 0 0 0 0 0 0 0 0 0 0 0 0 0 0 0 0 0 0 0 0 0 0 0 0 0 0 0 0 0 0 0 0 0 0
0 0 0 0 0 0 0 0 0 0 0 0 0 0 0 0 0 0 0 0 0 0 0 0 0 0 0 0 0 0 0 0 0 0 0 0 0 0 0 0 0 0 0
0 0 0 0 0 0 0 0 0 0 0 0 0 0 0 0 0 0 0 0 0 0 0 0 0 0 0 0 0 0 0 0 0 0 0 0 0 0 0 0 0 0 0
0 0 0 0 0 0 0 0 0 0 0 0 0 0 0 0 0 0 0 0 0 0 0 0 0 0 0 0 0 0 0 0 0 0 0 0 0 0 0 0 0 0 0
0 0 0 0 0 0 0 0 0 0 0 0 0 0 0 0 0 0 0 0 0 0 0 0 0 0 0 0 0 0 0 0 0 0 0 0 0 0 0 0 0 0 0
0 0 0 0 0 0 0 0 0 0 0 0 0 0 0 0 0 0 0 0 0 0 0 0 0 0 0 0 0 0 0 0 0 0 0 0 0 0 0 0 0 0 0
0 0 0 0 0 0 0 0 0 0 0 0 0 0 0 0 0 0 0 0 0 0 0 0 0 0 0 0 0 0 0 0 0 0 0 0 0 0 0 0 0 0 0
0 0 0 0 0 0 0 0 0 0 0 0 0 0 0 0 0 0 0 0 0 0 0 0 0 0 0 0 0 0 0 0 0 0 0 0 0 0 0 0 0 0 0
0 0 0 0 0 0 0 0 0 0 0 0 0 0 0 0 0 0 0 0 0 0 0 0 0 0 0 0 0 0 0 0 0 0 0 0 0 0 0 0 0 0 0
0 0 0 0 0 0 0 0 0 0 0 0 0 0 0 0 0 0 0 0 0 0 0 0 0 0 0 0 0 0 0 0 0 0 0 0 0 0 0 0 0 0 0
0 0 0 0 0 0 0 0 0 0 0 0 0 0 0 0 0 0 0 0 0 0 0 0 0 0 0 0 0 0 0 0 0 0 0 0 0 0 0 0 0 0 0
0 0 0 0 0 0 0 0 0 0 0 0 0 0 0 0 0 0 0 0 0 0 0 0 0 0 0 0 0 0 0 0 0 0 0 0 0 0 0 0 0 0 0
0 0 0 0 0 0 0 0 0 0 0 0 0 0 0 0 0 0 0 0 0 0 0 0 0 0 0 0 0 0 0 0 0 0 0 0 0 0 0 0 0 0 0
0 0 0 0 0 0 0 0 0 0 0 0 0 0 0 0 0 0 0 0 0 0 0 0 0 0 0 0 0 0 0 0 0 0 0 0 0 0 0 0 0 0 0
0 0 0 0 0 0 0 0 0 0 0 0 0 0 0 0 0 0 0 0 0 0 0 0 0 0 0 0 0 0 0 0 0 0 0 0 0 0 0 0 0 0 0
0 0 0 0 0 0 0 0 0 0 0 0 0 0 0 0 0 0 0 0 0 0 0 0 0 0 0 0 0 0 0 0 0 0 0 0 0 0 0 0 0 0 0
0 0 0 0 0 0 0 0 0 0 0 0 0 0 0 0 0 0 0 0 0 0 0 0 0 0 0 0 0 0 0 0 0 0 0 0 0 0 0 0 0 0 0
0 0 0 0 0 0 0 0 0 0 0 0 0 0 0 0 0 0 0 0 0 0 0 0 0 0 0 0 0 0 0 0 0 0 0 0 0 0 0 0 0 0 0
0 0 0 0 0 0 0 0 0 0 0 0 0 0 0 0 0 0 0 0 0 0 0 0 0 0 0 0 0 0 0 0 0 0 0 0 0 0 0 0 0 0 0
0 0 0 0 0 0 0 0 0 0 0 0 0 0 0 0 0 0 0 0 0 0 0 0 0 0 0 0 0 0 0 0 0 0 0 0 0 0 0 0 0 0 0
0 0 0 0 0 0 0 0 0 0 0 0 0 0 0 0 0 0 0 0 0 0 0 0 0 0 0 0 0 0 0 0 0 0 0 0 0 0 0 0 0 0 0
0 0 0 0 0 0 0 0 0 0 0 0 0 0 0 0 0 0 0 0 0 0 0 0 0 0 0 0 0 0 0 0 0 0 0 0 0 0 0 0 0 0 0
Wind_Speed
5 4 3 2 2 2 2 1 1 1 2 2 2 1 1 1 1 1 2 4 4 4 5 6 7 8 8 9 9 9 9 10 10 10 10 11 11 11 11 11 12 12 12
5 5 4 3 2 2 2 2 2 1 1 1 2 2 2 1 1 1 1 3 5 5 5 6 7 8 8 8 9 9 9 10 10 10 10 11 11 11 11 11 12 12 12
7 6 4 4 3 3 3 2 2 2 1 1 2 2 2 1 1 1 2 2 3 5 6 6 7 7 8 8 9 8 8 9 9 10 10 10 11 11 11 12 12 12 12
8 6 5 5 4 3 3 3 2 2 1 1 1 1 2 1 2 1 2 2 2 2 4 7 7 7 8 8 8 8 8 9 9 9 10 10 11 11 11 12 12 12 13
9 7 6 5 5 4 3 3 2 2 1 1 1 1 2 2 1 2 2 2 2 2 2 5 7 7 8 8 8 8 8 9 9 9 10 10 11 11 11 12 12 13 13
10 8 6 6 6 4 4 3 3 2 2 2 2 2 2 2 2 2 2 2 2 2 2 3 3 5 7 8 8 8 9 9 9 9 9 10 11 11 12 12 13 13 14
11 9 6 6 6 6 6 6 3 3 2 2 2 2 2 2 2 2 1 1 2 2 2 2 2 2 3 7 8 8 9 9 9 10 10 10 11 12 12 13 13 14 14
12 10 9 7 7 6 6 6 4 3 2 2 3 2 1 2 2 2 2 1 1 1 1 2 1 1 1 2 5 8 8 9 10 10 11 11 12 12 13 14 14 15 15
12 11 11 9 8 7 7 7 6 6 4 2 1 3 3 3 2 2 1 1 1 1 1 1 1 1 1 1 2 5 8 9 10 11 12 12 13 13 14 14 15 15 15
12 12 11 10 9 7 7 7 6 5 5 3 2 1 2 3 3 1 2 2 2 1 1 1 1 1 1 1 2 5 7 9 11 12 12 13 14 14 15 15 16 16 16
11 12 11 10 10 8 8 8 7 6 5 5 4 3 2 1 2 2 2 3 2 2 2 1 1 1 1 1 1 4 7 9 11 12 13 14 15 15 16 16 17 17 17
8 11 11 10 10 8 9 9 8 8 6 5 4 4 4 4 3 3 3 2 2 3 2 2 2 2 2 1 2 6 8 9 11 12 13 14 15 15 16 17 17 18 18
8 11 10 10 9 9 9 8 8 8 7 7 6 4 4 3 3 4 3 2 2 2 3 2 2 2 2 2 3 7 7 10 11 13 14 14 15 15 16 17 18 18 19
10 12 12 11 10 10 9 8 7 7 6 6 6 5 4 3 3 4 4 3 1 2 2 4 2 3 3 2 5 7 4 11 12 13 14 15 15 16 17 17 18 19 19
8 11 12 11 10 10 10 10 7 7 7 6 6 6 4 3 3 3 3 4 4 3 4 4 3 3 2 3 6 3 4 10 13 14 15 15 16 17 17 18 18 19 19
9 11 11 11 10 10 10 9 7 7 7 6 5 6 4 3 3 3 3 3 3 4 4 3 4 3 3 3 7 4 4 13 14 15 16 16 17 17 18 18 19 19 20
11 12 12 11 11 11 10 9 8 8 8 6 5 6 6 5 4 3 3 3 3 3 4 4 2 2 3 4 5 4 5 5 6 15 17 17 18 18 18 19 19 20 21
11 11 11 11 11 11 11 11 10 9 9 9 7 7 6 4 5 3 3 4 4 4 4 5 3 2 4 5 5 5 5 5 5 13 17 18 18 18 19 19 20 20 21
10 10 10 11 11 11 10 10 10 10 9 8 8 8 7 6 5 4 4 4 3 3 4 4 4 3 3 3 4 5 5 5 6 10 14 16 17 18 19 19 20 21 21
10 10 10 10 10 9 9 9 9 8 7 6 6 6 6 7 7 6 5 5 4 3 3 4 4 4 4 4 3 4 5 4 5 6 10 11 15 18 19 20 20 21 21
9 9 9 8 8 8 8 9 8 8 7 6 5 5 5 7 8 6 5 4 4 3 3 3 4 3 4 3 4 3 5 5 5 5 4 5 6 6 9 14 18 20 21
8 8 8 9 8 7 12 14 11 8 7 7 6 4 4 5 7 8 9 7 6 5 4 3 4 5 6 5 4 4 4 5 5 3 3 5 4 6 7 6 15 20 20
8 8 8 8 8 8 13 14 14 8 7 6 6 4 3 4 5 3 6 8 7 9 8 4 5 6 5 5 4 5 5 6 6 4 3 6 4 6 6 9 18 20 19
7 7 7 7 6 7 12 13 13 7 5 5 5 5 4 3 3 4 3 3 4 5 7 5 5 6 6 6 6 6 6 6 6 4 4 6 4 5 6 6 15 17 17
6 6 6 7 7 6 9 11 11 6 4 4 3 3 4 3 6 6 3 4 4 5 7 10 11 10 12 13 10 4 3 5 7 4 3 4 4 4 4 5 8 14 16
6 6 6 5 6 5 8 10 11 5 4 3 2 2 4 4 5 5 3 3 5 5 4 4 6 8 7 8 11 5 3 5 6 5 2 2 3 3 5 3 4 5 8
Wind_Direction
162 160 157 155 157 144 137 127 113 82 62 44 33 40 34 23 15 7 340 357 14 18 24 26 27 27 31 32 31 28 24 21 18 15 11 8 5 1 357 353 351 350 346
166 165 165 168 176 170 160 151 148 125 94 62 37 41 43 28 20 18 12 8 25 35 33 31 32 30 27 28 28 26 22 18 15 12 9 5 1 357 354 352 349 346 343
171 169 168 177 184 170 156 138 127 108 97 77 53 34 32 23 38 39 39 32 20 31 38 37 33 26 24 21 21 20 18 12 11 8 5 1 357 355 351 348 347 344 342
173 170 174 185 178 162 155 146 135 119 104 87 59 20 15 19 36 48 56 52 44 32 29 42 33 27 21 15 12 11 12 10 7 3 360 357 355 351 349 348 347 344 341
177 174 181 183 167 160 160 155 133 139 137 118 92 39 18 21 20 57 67 62 64 61 41 32 33 30 21 13 9 6 6 4 360 357 355 353 350 348 346 345 344 342 339
182 177 180 177 165 160 160 154 140 121 122 127 90 50 22 22 33 53 65 63 62 67 60 47 31 19 18 14 8 1 358 354 354 353 350 349 346 344 342 341 340 339 337
184 182 181 174 172 175 174 161 142 138 123 121 100 39 11 28 45 35 44 63 52 48 59 54 41 27 5 11 5 360 352 348 348 346 346 344 341 338 337 337 336 334 333
186 186 183 180 179 171 166 164 151 140 131 135 135 116 10 344 1 20 23 56 38 22 34 35 36 26 12 360 348 355 349 344 341 340 338 337 335 332 332 333 332 331 330
189 187 186 181 179 174 178 177 168 156 157 149 140 146 157 219 287 326 347 4 352 356 345 345 11 359 359 352 333 336 345 340 336 335 334 332 330 327 327 328 327 327 327
190 188 185 183 181 180 178 179 173 164 150 158 147 107 139 152 155 284 314 322 327 307 306 315 331 322 333 322 331 334 337 334 332 330 330 328 325 323 323 324 324 323 322
190 188 186 184 183 183 181 175 170 171 164 160 161 153 134 96 127 161 254 301 320 298 283 274 262 262 277 283 301 320 328 326 325 324 326 324 322 321 320 320 320 318 317
187 189 186 185 185 182 181 179 177 175 174 164 162 160 159 161 177 171 202 242 271 288 297 282 251 244 246 256 293 322 321 320 320 320 321 320 318 317 316 316 316 315 312
187 191 185 185 184 184 180 173 173 177 175 172 174 177 175 172 158 157 163 199 247 288 304 289 253 245 249 249 283 311 312 314 315 316 317 316 314 313 312 312 312 311 310
190 185 185 186 183 179 175 171 171 176 174 177 178 173 173 179 166 165 163 159 210 288 285 269 281 247 250 258 273 298 299 306 309 312 312 311 310 309 308 308 309 309 308
178 178 182 181 179 176 174 170 175 174 171 177 178 177 176 181 176 174 167 165 168 224 267 259 260 259 248 256 274 274 270 291 304 308 307 306 305 305 305 305 305 305 304
172 173 177 177 176 175 173 172 171 171 170 174 171 174 180 178 177 176 176 178 176 184 237 252 242 249 262 272 279 277 272 293 301 303 303 303 301 303 303 303 303 303 302
172 176 177 176 176 176 174 174 174 169 172 171 172 179 188 177 179 183 177 180 189 181 230 266 252 256 259 268 282 282 275 275 280 293 298 300 300 301 301 302 302 302 301
176 176 174 175 176 177 176 176 174 174 176 178 181 180 190 180 188 186 185 195 200 197 208 254 269 262 256 260 266 276 277 273 266 286 293 296 299 300 301 302 302 302 302
171 170 172 176 177 176 177 178 176 177 180 181 179 183 185 178 195 196 198 204 206 209 207 233 263 259 266 267 276 275 272 275 276 281 290 293 296 298 301 303 304 304 303
169 172 175 176 174 171 173 172 170 172 173 175 178 182 182 187 196 195 202 210 205 211 214 231 255 261 262 265 261 272 284 267 274 280 283 285 292 299 301 303 304 305 304
168 168 165 165 164 166 171 167 166 166 167 169 175 184 190 197 203 200 201 202 195 207 219 235 253 265 265 269 262 257 274 282 272 261 269 276 285 285 291 295 300 300 300
158 158 163 163 166 173 175 173 166 164 165 169 178 185 193 203 217 224 233 229 212 210 222 229 250 259 267 259 260 262 274 290 288 255 253 272 267 275 276 272 288 296 299
153 155 159 160 167 170 172 174 173 161 164 173 176 177 188 207 216 221 246 255 251 252 248 240 243 252 262 259 264 270 263 263 267 266 263 276 263 271 274 283 295 299 301
153 155 158 161 159 168 172 171 168 154 156 168 174 180 190 206 215 215 216 237 250 256 262 255 237 247 250 253 245 256 266 272 265 258 245 272 271 266 277 281 291 295 302
145 147 152 154 154 158 166 164 155 142 150 163 170 176 185 206 240 247 223 236 257 265 271 272 272 276 281 287 288 283 279 284 289 276 226 247 273 282 276 272 283 293 302
138 134 132 141 147 148 156 158 151 142 149 156 160 185 210 226 249 260 228 222 255 261 259 279 284 291 294 296 298 288 263 276 287 288 240 243 274 302 298 272 272 284 294